Location: Mainz-Finthen
(49.9906°N, 8.1713°E)
Time: 07:46:21
(UTC+00:00)

N. Korean satellite - Pass Details

Date: 01 December 2022
Orbit: 407 x 442 km, 97.3° (Epoch: 04 February)

Event Time Altitude Azimuth Distance (km) Brightness Sun altitude
Rises 03:53:22 0° 27° (NNE) 2,528 10.6 -29.7°
Maximum altitude 03:58:24 17° 91° (E) 1,248 9.4 -28.9°
Drops below altitude 10° 04:00:47 10° 135° (SE) 1,619 9.7 -28.5°
Sets 04:03:20 0° 156° (SSE) 2,479 10.5 -28.1°
